Time,TemperatureF,DewpointF,PressureIn,WindDirection,WindDirectionDegrees,WindSpeedMPH,WindSpeedGustMPH,Humidity,HourlyPrecipIn,Conditions,Clouds,dailyrainin,SolarRadiationWatts/m^2,SoftwareType,DateUTC
2013-06-26 00:01:00,59.0,57.0,29.85,South,183,13.0,22.0,93,0.01,,,0.66,0.000000,,2013-06-26 07:01:00,
2013-06-26 00:11:00,59.0,57.0,29.85,South,191,15.0,27.0,93,0.01,,,0.66,0.000000,,2013-06-26 07:11:00,
2013-06-26 00:33:00,59.0,57.0,29.86,SSW,192,13.0,19.0,93,0.02,,,0.56,0.000000,,2013-06-26 07:33:00,
2013-06-26 00:43:00,59.0,57.0,29.86,SSW,209,13.0,27.0,93,0.02,,,0.57,0.000000,,2013-06-26 07:43:00,
2013-06-26 00:53:00,59.0,57.0,29.86,South,180,16.0,27.0,93,0.03,,,0.59,0.000000,,2013-06-26 07:53:00,
2013-06-26 01:01:00,59.0,57.0,29.86,South,180,16.0,27.0,93,0.03,,,0.59,0.000000,,2013-06-26 08:01:00,
2013-06-26 01:11:00,59.0,57.0,29.86,South,179,14.0,22.0,93,0.03,,,0.59,0.000000,,2013-06-26 08:11:00,
2013-06-26 01:33:00,59.0,57.0,29.86,South,181,12.0,20.0,93,0.03,,,0.54,0.000000,,2013-06-26 08:33:00,
2013-06-26 01:42:00,59.0,57.0,29.86,South,185,14.0,23.0,93,0.03,,,0.55,0.000000,,2013-06-26 08:42:00,
2013-06-26 01:52:00,59.0,57.0,29.85,South,179,14.0,21.0,94,0.05,,,0.57,0.000000,,2013-06-26 08:52:00,
2013-06-26 02:01:00,59.0,57.0,29.85,South,179,14.0,21.0,94,0.05,,,0.57,0.000000,,2013-06-26 09:01:00,
2013-06-26 02:11:00,59.0,57.0,29.85,SSW,194,12.0,17.0,94,0.05,,,0.57,0.000000,,2013-06-26 09:11:00,
2013-06-26 02:22:00,59.0,57.0,29.85,SSW,194,12.0,17.0,94,0.05,,,0.57,0.000000,,2013-06-26 09:22:00,
2013-06-26 02:32:00,59.0,57.0,29.86,South,189,12.0,17.0,94,0.04,,,0.57,0.000000,,2013-06-26 09:32:00,
2013-06-26 02:43:00,59.0,57.0,29.86,South,179,13.0,22.0,94,0.03,,,0.59,0.000000,,2013-06-26 09:43:00,
2013-06-26 02:53:00,59.0,57.0,29.87,South,173,11.0,24.0,94,0.01,,,0.59,0.000000,,2013-06-26 09:53:00,
2013-06-26 03:01:00,59.0,57.0,29.87,South,173,11.0,24.0,94,0.01,,,0.59,0.000000,,2013-06-26 10:01:00,
2013-06-26 03:12:00,59.0,57.0,29.87,South,178,15.0,23.0,94,0.01,,,0.59,0.000000,,2013-06-26 10:12:00,
2013-06-26 03:22:00,59.0,57.0,29.87,South,173,13.0,22.0,94,0.04,,,0.62,0.000000,,2013-06-26 10:22:00,
2013-06-26 03:34:00,59.0,57.0,29.87,South,173,13.0,22.0,94,0.04,,,0.62,0.000000,,2013-06-26 10:34:00,
2013-06-26 03:43:00,59.0,57.0,29.87,South,182,13.0,21.0,94,0.03,,,0.62,0.000000,,2013-06-26 10:43:00,
2013-06-26 03:53:00,59.0,58.0,29.87,South,182,10.0,18.0,95,0.03,,,0.62,0.000000,,2013-06-26 10:53:00,
2013-06-26 04:02:00,59.0,58.0,29.87,South,182,10.0,18.0,95,0.03,,,0.62,0.000000,,2013-06-26 11:02:00,
2013-06-26 04:11:00,59.0,58.0,29.87,South,188,15.0,22.0,95,0.03,,,0.62,0.000000,,2013-06-26 11:11:00,
2013-06-26 04:22:00,59.0,58.0,29.87,South,180,14.0,22.0,95,0.00,,,0.59,0.000000,,2013-06-26 11:22:00,
2013-06-26 04:32:00,59.0,58.0,29.87,South,180,14.0,22.0,95,0.00,,,0.59,0.000000,,2013-06-26 11:32:00,
2013-06-26 04:43:00,59.0,58.0,29.88,South,176,10.0,19.0,95,0.00,,,0.59,0.000000,,2013-06-26 11:43:00,
2013-06-26 04:52:00,59.0,58.0,29.88,South,191,13.0,22.0,95,0.00,,,0.59,0.000000,,2013-06-26 11:52:00,
2013-06-26 05:02:00,59.0,58.0,29.88,South,191,13.0,22.0,95,0.00,,,0.59,0.000000,,2013-06-26 12:02:00,
2013-06-26 05:11:00,59.0,58.0,29.89,South,187,13.0,20.0,95,0.00,,,0.59,0.000000,,2013-06-26 12:11:00,
2013-06-26 05:22:00,59.0,58.0,29.89,South,186,14.0,19.0,95,0.00,,,0.50,0.000000,,2013-06-26 12:22:00,
2013-06-26 05:33:00,59.0,58.0,29.89,South,186,14.0,19.0,95,0.00,,,0.50,0.000000,,2013-06-26 12:33:00,
2013-06-26 05:42:00,59.0,58.0,29.89,SSW,197,15.0,20.0,95,0.00,,,0.50,0.000000,,2013-06-26 12:42:00,
2013-06-26 05:52:00,58.0,57.0,29.90,SSW,199,16.0,24.0,95,0.00,,,0.50,0.000000,,2013-06-26 12:52:00,
2013-06-26 06:02:00,58.0,57.0,29.90,SSW,199,16.0,24.0,95,0.00,,,0.50,0.000000,,2013-06-26 13:02:00,
2013-06-26 06:34:00,58.0,57.0,29.90,SSW,203,17.0,27.0,95,0.01,,,0.47,7.000000,,2013-06-26 13:34:00,
2013-06-26 06:42:00,58.0,57.0,29.90,South,177,11.0,25.0,95,0.01,,,0.47,19.000000,,2013-06-26 13:42:00,
2013-06-26 06:53:00,58.0,57.0,29.91,SSW,197,10.0,18.0,95,0.01,,,0.47,26.000000,,2013-06-26 13:53:00,
2013-06-26 07:02:00,58.0,57.0,29.91,SSW,197,10.0,18.0,95,0.01,,,0.47,26.000000,,2013-06-26 14:02:00,
2013-06-26 07:11:00,58.0,57.0,29.91,SSW,198,9.0,14.0,95,0.01,,,0.47,23.000000,,2013-06-26 14:11:00,
2013-06-26 07:33:00,59.0,58.0,29.91,SSW,211,14.0,19.0,95,0.00,,,0.47,30.000000,,2013-06-26 14:33:00,
2013-06-26 07:42:00,59.0,58.0,29.92,SSW,200,14.0,18.0,95,0.00,,,0.47,49.000000,,2013-06-26 14:42:00,
2013-06-26 07:52:00,59.0,58.0,29.93,SSW,196,15.0,20.0,95,0.00,,,0.47,47.000000,,2013-06-26 14:52:00,
2013-06-26 08:02:00,59.0,58.0,29.93,SSW,196,15.0,20.0,95,0.00,,,0.47,47.000000,,2013-06-26 15:02:00,
2013-06-26 08:11:00,58.0,57.0,29.93,South,177,18.0,23.0,95,0.00,,,0.47,40.000000,,2013-06-26 15:11:00,
2013-06-26 08:33:00,58.0,57.0,29.93,SSW,192,16.0,21.0,95,0.00,,,0.46,56.000000,,2013-06-26 15:33:00,
2013-06-26 08:43:00,58.0,57.0,29.93,SSW,192,15.0,21.0,95,0.00,,,0.46,39.000000,,2013-06-26 15:43:00,
2013-06-26 08:53:00,58.0,57.0,29.93,South,173,18.0,26.0,95,0.00,,,0.46,132.000000,,2013-06-26 15:53:00,
2013-06-26 09:01:00,58.0,57.0,29.93,South,173,18.0,26.0,95,0.00,,,0.46,132.000000,,2013-06-26 16:01:00,
2013-06-26 09:11:00,59.0,58.0,29.94,South,180,14.0,28.0,95,0.00,,,0.46,118.000000,,2013-06-26 16:11:00,
2013-06-26 09:22:00,59.0,58.0,29.94,South,186,16.0,25.0,95,0.00,,,0.46,229.000000,,2013-06-26 16:22:00,
2013-06-26 09:34:00,59.0,58.0,29.94,South,186,16.0,25.0,95,0.00,,,0.46,229.000000,,2013-06-26 16:34:00,
2013-06-26 09:43:00,60.0,58.0,29.95,South,183,13.0,27.0,94,0.00,,,0.46,234.000000,,2013-06-26 16:43:00,
2013-06-26 09:52:00,60.0,58.0,29.95,South,189,11.0,20.0,94,0.00,,,0.46,299.000000,,2013-06-26 16:52:00,
2013-06-26 10:01:00,60.0,58.0,29.95,South,189,11.0,20.0,94,0.00,,,0.46,299.000000,,2013-06-26 17:01:00,
2013-06-26 10:11:00,60.0,58.0,29.96,SSW,202,13.0,18.0,94,0.00,,,0.46,295.000000,,2013-06-26 17:11:00,
2013-06-26 10:23:00,60.0,58.0,29.96,SSW,202,13.0,18.0,94,0.00,,,0.46,295.000000,,2013-06-26 17:23:00,
2013-06-26 10:33:00,60.0,58.0,29.96,SSW,193,14.0,18.0,94,0.00,,,0.44,257.000000,,2013-06-26 17:33:00,
2013-06-26 10:43:00,60.0,59.0,29.96,SSW,205,13.0,17.0,95,0.00,,,0.44,304.000000,,2013-06-26 17:43:00,
2013-06-26 10:52:00,60.0,59.0,29.96,SSW,205,13.0,17.0,95,0.00,,,0.44,304.000000,,2013-06-26 17:52:00,
2013-06-26 11:01:00,60.0,59.0,29.97,SSW,213,14.0,18.0,95,0.00,,,0.44,415.000000,,2013-06-26 18:01:00,
2013-06-26 11:11:00,60.0,59.0,29.97,SW,217,14.0,19.0,95,0.00,,,0.44,475.000000,,2013-06-26 18:11:00,
2013-06-26 11:34:00,60.0,59.0,29.97,SSW,208,13.0,17.0,95,0.00,,,0.28,598.000000,,2013-06-26 18:34:00,
2013-06-26 11:42:00,60.0,59.0,29.98,SW,216,16.0,18.0,95,0.00,,,0.28,468.000000,,2013-06-26 18:42:00,
2013-06-26 11:52:00,60.0,59.0,29.98,SSW,200,13.0,16.0,95,0.00,,,0.28,429.000000,,2013-06-26 18:52:00,
2013-06-26 12:01:00,60.0,59.0,29.98,SSW,200,13.0,16.0,95,0.00,,,0.28,429.000000,,2013-06-26 19:01:00,
2013-06-26 12:11:00,61.0,60.0,29.98,SSW,207,13.0,16.0,95,0.00,,,0.28,612.000000,,2013-06-26 19:11:00,
2013-06-26 12:22:00,61.0,60.0,29.98,SSW,207,13.0,16.0,95,0.00,,,0.28,612.000000,,2013-06-26 19:22:00,
2013-06-26 12:32:00,61.0,60.0,29.99,SSW,210,13.0,16.0,95,0.00,,,0.25,703.000000,,2013-06-26 19:32:00,
2013-06-26 12:42:00,61.0,60.0,30.00,SSW,207,14.0,17.0,95,0.00,,,0.25,728.000000,,2013-06-26 19:42:00,
2013-06-26 12:52:00,62.0,60.0,30.01,SSW,210,11.0,16.0,94,0.00,,,0.25,717.000000,,2013-06-26 19:52:00,
2013-06-26 13:01:00,62.0,60.0,30.01,SSW,210,11.0,16.0,94,0.00,,,0.25,717.000000,,2013-06-26 20:01:00,
2013-06-26 13:12:00,62.0,60.0,30.01,SSW,192,11.0,14.0,94,0.00,,,0.25,663.000000,,2013-06-26 20:12:00,
2013-06-26 13:22:00,62.0,60.0,30.01,SSW,192,11.0,14.0,94,0.00,,,0.25,663.000000,,2013-06-26 20:22:00,
2013-06-26 13:33:00,63.0,61.0,30.01,SSW,204,11.0,14.0,94,0.00,,,0.25,761.000000,,2013-06-26 20:33:00,
2013-06-26 13:43:00,63.0,61.0,30.01,SW,216,10.0,12.0,92,0.00,,,0.25,659.000000,,2013-06-26 20:43:00,
2013-06-26 13:52:00,63.0,61.0,30.01,SSW,202,9.0,13.0,93,0.00,,,0.25,872.000000,,2013-06-26 20:52:00,
2013-06-26 14:01:00,63.0,61.0,30.01,SSW,202,9.0,13.0,93,0.00,,,0.25,872.000000,,2013-06-26 21:01:00,
2013-06-26 14:11:00,63.0,61.0,30.02,SSW,204,11.0,15.0,92,0.00,,,0.25,610.000000,,2013-06-26 21:11:00,
2013-06-26 14:23:00,63.0,60.0,30.02,SSW,204,12.0,16.0,91,0.00,,,0.24,649.000000,,2013-06-26 21:23:00,
2013-06-26 14:33:00,63.0,60.0,30.02,SSW,204,12.0,16.0,91,0.00,,,0.24,649.000000,,2013-06-26 21:33:00,
2013-06-26 14:43:00,63.0,60.0,30.02,SSW,199,17.0,21.0,90,0.00,,,0.24,745.000000,,2013-06-26 21:43:00,
2013-06-26 14:52:00,63.0,60.0,30.02,SSW,208,17.0,22.0,91,0.00,,,0.24,,,2013-06-26 21:52:00,
2013-06-26 15:01:00,63.0,60.0,30.02,SSW,208,17.0,22.0,91,0.00,,,0.24,,,2013-06-26 22:01:00,
2013-06-26 15:11:00,63.0,60.0,30.02,SSW,200,16.0,21.0,90,0.00,,,0.24,861.000000,,2013-06-26 22:11:00,
2013-06-26 15:33:00,63.0,60.0,30.02,SSW,198,18.0,23.0,90,0.00,,,0.24,715.000000,,2013-06-26 22:33:00,
2013-06-26 15:43:00,63.0,60.0,30.02,SSW,205,16.0,22.0,90,0.00,,,0.24,596.000000,,2013-06-26 22:43:00,
2013-06-26 15:52:00,63.0,60.0,30.02,SSW,205,16.0,22.0,90,0.00,,,0.24,596.000000,,2013-06-26 22:52:00,
2013-06-26 16:01:00,64.0,61.0,30.02,SW,217,18.0,24.0,90,0.00,,,0.24,789.000000,,2013-06-26 23:01:00,
2013-06-26 16:11:00,64.0,61.0,30.02,SSW,200,19.0,25.0,89,0.00,,,0.24,522.000000,,2013-06-26 23:11:00,
2013-06-26 16:22:00,64.0,61.0,30.02,SSW,200,16.0,23.0,90,0.00,,,0.24,624.000000,,2013-06-26 23:22:00,
2013-06-26 16:34:00,64.0,61.0,30.02,SSW,200,16.0,23.0,90,0.00,,,0.24,624.000000,,2013-06-26 23:34:00,
2013-06-26 16:43:00,64.0,61.0,30.02,SSW,198,19.0,25.0,89,0.00,,,0.24,613.000000,,2013-06-26 23:43:00,
2013-06-26 16:52:00,64.0,60.0,30.02,SSW,198,17.0,28.0,88,0.00,,,0.24,473.000000,,2013-06-26 23:52:00,
2013-06-26 17:01:00,64.0,60.0,30.02,SSW,198,17.0,28.0,88,0.00,,,0.24,473.000000,,2013-06-27 00:01:00,
2013-06-26 17:11:00,63.0,60.0,30.03,SSW,194,17.0,22.0,89,0.00,,,0.24,339.000000,,2013-06-27 00:11:00,
2013-06-26 17:33:00,63.0,60.0,30.03,SSW,199,16.0,23.0,89,0.00,,,0.24,417.000000,,2013-06-27 00:33:00,
2013-06-26 17:42:00,64.0,61.0,30.03,SSW,196,16.0,22.0,90,0.00,,,0.24,476.000000,,2013-06-27 00:42:00,
2013-06-26 17:53:00,64.0,61.0,30.03,SSW,196,16.0,22.0,90,0.00,,,0.24,476.000000,,2013-06-27 00:53:00,
2013-06-26 18:01:00,64.0,61.0,30.03,SSW,196,16.0,22.0,90,0.00,,,0.24,476.000000,,2013-06-27 01:01:00,
2013-06-26 18:11:00,64.0,61.0,30.03,SSW,203,17.0,25.0,89,0.00,,,0.24,367.000000,,2013-06-27 01:11:00,
2013-06-26 18:21:00,64.0,61.0,30.03,SSW,203,17.0,25.0,89,0.00,,,0.24,367.000000,,2013-06-27 01:21:00,
2013-06-26 18:32:00,64.0,61.0,30.03,SSW,203,17.0,25.0,89,0.00,,,0.24,367.000000,,2013-06-27 01:32:00,
2013-06-26 18:42:00,64.0,60.0,30.03,SSW,205,17.0,21.0,88,0.00,,,0.24,246.000000,,2013-06-27 01:42:00,
2013-06-26 18:52:00,64.0,60.0,30.03,SSW,205,17.0,21.0,88,0.00,,,0.24,246.000000,,2013-06-27 01:52:00,
2013-06-26 19:01:00,64.0,60.0,30.03,SSW,205,17.0,21.0,88,0.00,,,0.24,246.000000,,2013-06-27 02:01:00,
2013-06-26 19:11:00,63.0,60.0,30.02,SSW,206,17.0,21.0,89,0.00,,,0.24,309.000000,,2013-06-27 02:11:00,
2013-06-26 19:22:00,63.0,60.0,30.02,SSW,206,17.0,21.0,89,0.00,,,0.24,309.000000,,2013-06-27 02:22:00,
2013-06-26 19:32:00,63.0,60.0,30.02,SSW,206,17.0,21.0,89,0.00,,,0.24,309.000000,,2013-06-27 02:32:00,
2013-06-26 19:42:00,63.0,60.0,30.02,SSW,206,13.0,18.0,89,0.00,,,0.24,199.000000,,2013-06-27 02:42:00,
2013-06-26 19:51:00,63.0,60.0,30.02,SSW,206,13.0,18.0,89,0.00,,,0.24,199.000000,,2013-06-27 02:51:00,
2013-06-26 20:02:00,62.0,59.0,30.02,SSW,202,12.0,14.0,90,0.00,,,0.24,42.000000,,2013-06-27 03:02:00,
2013-06-26 20:11:00,62.0,59.0,30.02,SSW,202,12.0,14.0,90,0.00,,,0.24,42.000000,,2013-06-27 03:11:00,
2013-06-26 20:21:00,62.0,59.0,30.02,SSW,202,12.0,14.0,90,0.00,,,0.24,42.000000,,2013-06-27 03:21:00,
2013-06-26 20:32:00,62.0,59.0,30.01,South,187,5.0,13.0,90,0.00,,,0.24,39.000000,,2013-06-27 03:32:00,
2013-06-26 20:42:00,62.0,59.0,30.01,South,187,5.0,13.0,90,0.00,,,0.24,39.000000,,2013-06-27 03:42:00,
2013-06-26 20:52:00,62.0,59.0,30.02,SSW,208,3.0,7.0,90,0.00,,,0.22,12.000000,,2013-06-27 03:52:00,
2013-06-26 21:01:00,62.0,59.0,30.02,SSW,208,3.0,7.0,90,0.00,,,0.22,12.000000,,2013-06-27 04:01:00,
2013-06-26 21:11:00,62.0,59.0,30.02,SSW,208,3.0,7.0,90,0.00,,,0.22,12.000000,,2013-06-27 04:11:00,
2013-06-26 21:32:00,62.0,59.0,30.02,SSW,201,2.0,7.0,91,0.00,,,0.22,9.000000,,2013-06-27 04:32:00,
2013-06-26 21:42:00,62.0,59.0,30.02,South,181,7.0,11.0,91,0.00,,,0.17,0.000000,,2013-06-27 04:42:00,
2013-06-26 21:52:00,62.0,59.0,30.02,South,181,7.0,11.0,91,0.00,,,0.17,0.000000,,2013-06-27 04:52:00,
2013-06-26 22:02:00,62.0,59.0,30.02,SSW,209,5.0,9.0,91,0.00,,,0.17,0.000000,,2013-06-27 05:02:00,
2013-06-26 22:11:00,62.0,59.0,30.02,SSW,209,5.0,9.0,91,0.00,,,0.17,0.000000,,2013-06-27 05:11:00,
2013-06-26 22:21:00,62.0,59.0,30.03,South,183,0.0,3.0,91,0.00,,,0.17,0.000000,,2013-06-27 05:21:00,
2013-06-26 22:32:00,62.0,59.0,30.03,South,183,0.0,3.0,91,0.00,,,0.17,0.000000,,2013-06-27 05:32:00,
2013-06-26 22:42:00,62.0,59.0,30.02,South,183,0.0,0.0,91,0.00,,,0.14,0.000000,,2013-06-27 05:42:00,
2013-06-26 22:53:00,62.0,59.0,30.02,South,183,0.0,0.0,91,0.00,,,0.14,0.000000,,2013-06-27 05:53:00,
2013-06-26 23:01:00,62.0,59.0,30.02,SE,144,3.0,5.0,91,0.00,,,0.14,0.000000,,2013-06-27 06:01:00,
2013-06-26 23:12:00,62.0,59.0,30.02,SW,223,3.0,5.0,91,0.00,,,0.14,0.000000,,2013-06-27 06:12:00,
2013-06-26 23:22:00,62.0,59.0,30.02,SW,219,0.0,6.0,91,0.00,,,0.14,0.000000,,2013-06-27 06:22:00,
2013-06-26 23:34:00,62.0,59.0,30.02,SW,219,0.0,6.0,91,0.00,,,0.14,0.000000,,2013-06-27 06:34:00,
2013-06-26 23:43:00,62.0,59.0,30.02,SW,219,0.0,3.0,91,0.00,,,0.14,0.000000,,2013-06-27 06:43:00,
2013-06-26 23:53:00,62.0,60.0,30.01,SE,128,0.0,4.0,92,0.00,,,0.14,0.000000,,2013-06-27 06:53:00,